KD5UIG Weather Reports


Display with metric or nautical units.
time (UTC)temp
F
wind
direction
speed
MPH
gust
MPH
rain 1hr
in
rain 24hr
in
rain mn
in
humidity
%
barometer
mb
20260506102557 54 15 3.0 8.0 0.00 0.00 0.00 74 1011.9
20260506102059 54 360 3.0 8.0 0.00 0.00 0.00 74 1011.9
20260506101556 55 360 2.0 7.0 0.00 0.00 0.00 74 1011.9
20260506101057 55 338 2.0 9.0 0.00 0.00 0.00 74 1011.8
20260506100557 55 49 3.0 9.0 0.00 0.00 0.00 74 1011.8
20260506100111 55 28 2.0 9.0 0.00 0.00 0.00 74 1011.8
20260506095555 55 5 1.0 8.0 0.00 0.00 0.00 74 1011.6
20260506095055 55 360 3.0 8.0 0.00 0.00 0.00 74 1011.5
20260506094601 55 17 1.0 6.0 0.00 0.00 0.00 74 1011.5
20260506094055 55 5 1.0 6.0 0.00 0.00 0.00 74 1011.4
20260506093554 55 0 0.0 4.0 0.00 0.00 0.00 74 1011.4
20260506093112 55 45 1.0 4.0 0.00 0.00 0.00 74 1011.1
20260506092556 55 0 1.0 3.0 0.00 0.00 0.00 75 1011.1
20260506092056 56 0 0.0 3.0 0.00 0.00 0.00 75 1011.0
20260506091055 56 9 0.0 6.0 0.00 0.00 0.00 75 1010.8
20260506090557 56 360 1.0 6.0 0.00 0.00 0.00 74 1010.9
20260506090105 56 352 1.0 6.0 0.00 0.00 0.00 74 1010.8
20260506085555 56 5 1.0 6.0 0.00 0.00 0.00 74 1010.8
20260506085055 56 337 2.0 6.0 0.00 0.00 0.00 74 1010.7
20260506084631 56 0 1.0 6.0 0.00 0.00 0.00 74 1010.7
20260506084055 56 31 1.0 5.0 0.00 0.00 0.00 74 1010.7
20260506083556 56 13 1.0 8.0 0.00 0.00 0.00 75 1010.5
20260506083058 56 92 1.0 8.0 0.00 0.00 0.00 74 1010.6
20260506082557 56 0 1.0 8.0 0.00 0.00 0.00 74 1010.6
20260506082055 56 13 1.0 7.0 0.00 0.00 0.00 74 1010.6
20260506081559 56 22 2.0 7.0 0.00 0.00 0.00 74 1010.7
20260506081056 56 0 1.0 7.0 0.00 0.00 0.00 74 1010.6
20260506080559 56 5 1.0 7.0 0.00 0.00 0.00 75 1010.6
20260506073054 57 310 1.0 6.0 0.00 0.00 0.00 76 1010.2
20260506072555 57 0 2.0 7.0 0.00 0.00 0.00 75 1009.7
20260506072055 57 67 2.0 9.0 0.00 0.00 0.00 76 1009.7
20260506071558 57 70 2.0 9.0 0.00 0.00 0.00 75 1009.7
20260506071055 57 66 2.0 8.0 0.00 0.00 0.00 76 1009.7
20260506070555 57 71 2.0 8.0 0.00 0.00 0.00 76 1009.7
20260506062055 57 41 2.0 8.0 0.00 0.00 0.00 76 1010.1
20260506061559 57 5 0.0 4.0 0.00 0.00 0.00 76 1010.1
20260506061055 57 313 2.0 7.0 0.00 0.00 0.00 76 1010.2
20260506060556 58 0 1.0 9.0 0.00 0.00 0.00 76 1010.1
20260506051055 59 89 2.0 9.0 0.00 0.00 0.00 77 1010.4
20260506050556 59 306 2.0 9.0 0.00 0.00 0.00 77 1010.4
20260506045055 59 15 2.0 10.0 0.00 0.00 0.00 77 1010.3
20260506044553 59 289 2.0 10.0 0.00 0.00 0.00 78 1010.2
20260506044056 59 61 2.0 10.0 0.00 0.00 0.00 77 1010.2
20260506043555 59 348 3.0 9.0 0.00 0.00 0.00 77 1010.2
20260506043054 59 112 1.0 6.0 0.00 0.00 0.00 77 1010.3
20260506042555 59 352 2.0 8.0 0.00 0.00 0.00 77 1010.3
20260506042058 60 338 3.0 8.0 0.00 0.00 0.00 77 1010.2
20260506041608 60 26 1.0 8.0 0.00 0.00 0.00 78 1010.1
20260506041054 60 346 1.0 8.0 0.00 0.00 0.00 78 1010.0
20260506040555 60 88 2.0 8.0 0.00 0.00 0.00 78 1010.1
20260506040056 60 23 2.0 11.0 0.00 0.00 0.00 78 1010.1
20260506035555 60 9 1.0 11.0 0.00 0.00 0.00 78 1010.0
20260506035055 60 333 3.0 11.0 0.00 0.00 0.00 78 1009.9
20260506034557 61 317 3.0 8.0 0.00 0.00 0.00 78 1009.9
20260506034057 61 336 2.0 7.0 0.00 0.00 0.00 78 1009.7
20260506033557 61 30 3.0 9.0 0.00 0.00 0.00 78 1009.9
20260506033057 61 18 2.0 9.0 0.00 0.00 0.00 77 1009.6
20260506032555 61 29 2.0 9.0 0.00 0.00 0.00 77 1009.5
20260506032055 61 17 2.0 9.0 0.00 0.00 0.00 77 1009.4
20260506031558 62 26 2.0 7.0 0.00 0.00 0.00 77 1009.4
20260506031054 62 351 2.0 10.0 0.00 0.00 0.00 77 1009.4
20260506030557 62 335 2.0 10.0 0.00 0.00 0.00 77 1009.4
20260506030059 62 13 3.0 10.0 0.00 0.00 0.00 77 1009.4
20260506025555 62 17 2.0 8.0 0.00 0.00 0.00 77 1009.3
20260506025058 62 149 2.0 9.0 0.00 0.00 0.00 77 1009.4
20260506024555 63 11 2.0 9.0 0.00 0.00 0.00 77 1009.1
20260506024055 63 327 4.0 9.0 0.00 0.00 0.00 76 1008.9
20260506023556 63 347 2.0 7.0 0.00 0.00 0.00 76 1008.9
20260506023109 63 291 2.0 7.0 0.00 0.00 0.00 75 1008.7
20260506022555 63 360 2.0 9.0 0.00 0.00 0.00 75 1008.6
20260506022055 64 349 2.0 9.0 0.00 0.00 0.00 75 1008.4
20260506021617 64 31 3.0 9.0 0.00 0.00 0.00 74 1008.5
20260506021054 64 348 2.0 8.0 0.00 0.00 0.00 74 1008.0
20260506020555 65 32 3.0 8.0 0.00 0.00 0.00 74 1007.9
20260506020107 65 0 2.0 8.0 0.00 0.00 0.00 73 1007.8
20260506015555 66 138 3.0 8.0 0.00 0.00 0.00 73 1007.6
20260506015057 66 323 2.0 6.0 0.00 0.00 0.00 74 1007.5
20260506014604 66 0 0.0 6.0 0.00 0.00 0.00 74 1007.6
20260506014059 67 0 1.0 6.0 0.00 0.00 0.00 74 1007.6
20260506013555 67 0 0.0 3.0 0.00 0.00 0.00 73 1007.3
20260506013107 67 0 0.0 3.0 0.00 0.00 0.00 73 1007.1
20260506012555 67 333 0.0 4.0 0.00 0.00 0.00 72 1007.0
20260506012054 67 54 0.0 8.0 0.00 0.00 0.00 72 1007.0
20260506011617 67 61 1.0 8.0 0.00 0.00 0.00 72 1007.1
20260506011055 67 0 2.0 8.0 0.00 0.00 0.00 71 1006.7
20260506010555 68 22 1.0 5.0 0.00 0.00 0.00 71 1006.4
20260506010059 68 337 1.0 6.0 0.00 0.00 0.00 70 1006.2
20260506005558 68 34 2.0 6.0 0.00 0.00 0.00 70 1006.1
20260506005054 68 5 1.0 9.0 0.00 0.00 0.00 70 1006.3
20260506004558 68 38 2.0 9.0 0.00 0.00 0.00 70 1006.3
20260506004054 69 15 3.0 9.0 0.00 0.00 0.00 69 1006.3
20260506003555 69 325 2.0 11.0 0.00 0.00 0.00 69 1006.2
20260506003105 70 9 3.0 11.0 0.00 0.00 0.00 69 1006.1
20260506002623 70 12 2.0 6.0 0.00 0.00 0.00 69 1006.1
20260506002055 70 34 2.0 9.0 0.00 0.00 0.00 69 1005.9
20260506001556 71 307 2.0 9.0 0.00 0.00 0.00 68 1005.8
20260506001055 71 32 2.0 10.0 0.00 0.00 0.00 68 1005.8
20260506000555 71 26 3.0 10.0 0.00 0.00 0.00 67 1006.0
20260506000100 72 360 3.0 9.0 0.00 0.00 0.00 68 1006.1
20260505235554 72 351 2.0 9.0 0.00 0.00 0.00 67 1005.9
20260505235056 73 355 2.0 9.0 0.00 0.00 0.00 67 1005.7
20260505234556 73 355 2.0 9.0 0.00 0.00 0.00 67 1005.7
20260505234054 73 316 2.0 11.0 0.00 0.00 0.00 66 1005.7
20260505233555 73 14 3.0 11.0 0.00 0.00 0.00 65 1005.8
20260505233104 74 13 2.0 11.0 0.00 0.00 0.00 65 1005.6
20260505232555 74 360 3.0 11.0 0.00 0.00 0.00 65 1005.6
20260505232056 75 19 3.0 9.0 0.00 0.00 0.00 65 1005.6
20260505231611 75 336 2.0 9.0 0.00 0.00 0.00 64 1005.5
20260505231056 76 5 2.0 9.0 0.00 0.00 0.00 64 1005.7
20260505230555 77 5 4.0 15.0 0.00 0.00 0.00 62 1005.2
20260505230054 78 304 4.0 15.0 0.00 0.00 0.00 62 1005.5
20260505225555 78 36 3.0 11.0 0.00 0.00 0.00 61 1005.4
20260505225055 79 252 3.0 10.0 0.00 0.00 0.00 59 1005.6
20260505224603 80 19 3.0 10.0 0.00 0.00 0.00 59 1005.2
20260505224055 80 286 3.0 10.0 0.00 0.00 0.00 59 1005.1
20260505223554 81 30 2.0 8.0 0.00 0.00 0.00 58 1005.0
20260505223059 81 280 3.0 9.0 0.00 0.00 0.00 58 1004.9
20260505222557 82 277 3.0 9.0 0.00 0.00 0.00 57 1004.9
20260505222056 83 344 3.0 9.0 0.00 0.00 0.00 57 1004.9
20260505221603 83 355 2.0 9.0 0.00 0.00 0.00 57 1004.7
20260505221055 84 10 2.0 10.0 0.00 0.00 0.00 55 1004.5
20260505220555 85 305 3.0 12.0 0.00 0.00 0.00 54 1004.5
20260505215554 86 276 2.0 9.0 0.00 0.00 0.00 54 1004.4
20260505215055 86 352 2.0 9.0 0.00 0.00 0.00 53 1004.1
20260505214559 85 269 4.0 11.0 0.00 0.00 0.00 53 1004.1
20260505214058 84 287 2.0 11.0 0.00 0.00 0.00 54 1004.2
20260505213554 85 65 3.0 11.0 0.00 0.00 0.00 52 1004.3
20260505213059 86 187 4.0 11.0 0.00 0.00 0.00 52 1004.3
20260505212554 87 343 3.0 12.0 0.00 0.00 0.00 51 1004.3
20260505212054 87 281 4.0 12.0 0.00 0.00 0.00 51 1004.2
20260505211556 88 259 4.0 11.0 0.00 0.00 0.00 47 1004.4
20260505211053 89 282 4.0 13.0 0.00 0.00 0.00 46 1004.3
20260505210554 89 275 4.0 13.0 0.00 0.00 0.00 45 1004.3
20260505210055 88 320 3.0 12.0 0.00 0.00 0.00 43 1004.5
20260505205555 88 300 3.0 12.0 0.00 0.00 0.00 43 1004.5
20260505205054 88 290 2.0 13.0 0.00 0.00 0.00 44 1004.4
20260505204553 87 34 3.0 13.0 0.00 0.00 0.00 42 1004.6
20260505204054 88 260 7.0 15.0 0.00 0.00 0.00 42 1004.6
20260505203554 89 281 5.0 15.0 0.00 0.00 0.00 43 1004.6
20260505203117 90 270 5.0 15.0 0.00 0.00 0.00 43 1004.5
20260505202557 91 293 5.0 15.0 0.00 0.00 0.00 44 1004.5
20260505202056 91 277 2.0 10.0 0.00 0.00 0.00 48 1004.3
20260505201605 90 289 2.0 9.0 0.00 0.00 0.00 49 1004.4
20260505201054 89 273 3.0 9.0 0.00 0.00 0.00 48 1004.5
20260505200554 90 285 4.0 13.0 0.00 0.00 0.00 49 1004.8
20260505200057 90 291 3.0 13.0 0.00 0.00 0.00 54 1004.8
20260505195555 90 242 1.0 5.0 0.00 0.00 0.00 55 1004.7
20260505195053 90 206 1.0 8.0 0.00 0.00 0.00 61 1004.6
20260505194553 90 248 3.0 10.0 0.00 0.00 0.00 56 1004.6
20260505194054 90 180 2.0 10.0 0.00 0.00 0.00 60 1004.5
20260505193555 89 305 2.0 9.0 0.00 0.00 0.00 56 1004.5
20260505193053 90 240 3.0 9.0 0.00 0.00 0.00 55 1004.7
20260505192557 91 219 2.0 8.0 0.00 0.00 0.00 55 1004.8
20260505192054 90 0 2.0 11.0 0.00 0.00 0.00 55 1004.8
20260505191603 91 221 2.0 12.0 0.00 0.00 0.00 54 1004.6
20260505191055 92 221 3.0 12.0 0.00 0.00 0.00 55 1004.5
20260505190554 91 246 2.0 11.0 0.00 0.00 0.00 56 1004.6
20260505190057 89 0 3.0 12.0 0.00 0.00 0.00 57 1004.5
20260505185554 89 215 3.0 12.0 0.00 0.00 0.00 58 1004.5
20260505185055 88 270 4.0 12.0 0.00 0.00 0.00 56 1004.5
20260505184555 88 232 3.0 11.0 0.00 0.00 0.00 58 1004.5
20260505184055 88 234 3.0 11.0 0.00 0.00 0.00 57 1004.4
20260505183555 88 225 2.0 12.0 0.00 0.00 0.00 60 1004.4
20260505183053 88 180 4.0 14.0 0.00 0.00 0.00 60 1004.5
20260505182554 88 232 3.0 14.0 0.00 0.00 0.00 61 1004.7
20260505182054 88 180 4.0 10.0 0.00 0.00 0.00 60 1004.6
20260505181553 87 183 2.0 10.0 0.00 0.00 0.00 62 1004.6
20260505181055 86 172 4.0 10.0 0.00 0.00 0.00 63 1004.7
20260505180554 85 185 2.0 9.0 0.00 0.00 0.00 64 1004.7
20260505175555 85 175 3.0 10.0 0.00 0.00 0.00 62 1004.7
20260505175054 85 252 4.0 13.0 0.00 0.00 0.00 63 1004.7
20260505174555 85 229 3.0 13.0 0.00 0.00 0.00 65 1004.8
20260505174054 84 223 3.0 10.0 0.00 0.00 0.00 65 1004.7
20260505173554 83 216 3.0 15.0 0.00 0.00 0.00 66 1004.8
20260505173057 83 190 5.0 16.0 0.00 0.00 0.00 65 1004.7
20260505172553 83 155 6.0 16.0 0.00 0.00 0.00 66 1004.7
20260505172053 82 250 6.0 14.0 0.00 0.00 0.00 67 1004.6
20260505171552 82 237 5.0 12.0 0.00 0.00 0.00 66 1004.6
20260505171055 82 216 4.0 12.0 0.00 0.00 0.00 69 1004.7
20260505170555 81 173 4.0 10.0 0.00 0.00 0.00 69 1004.6
20260505170108 81 173 4.0 10.0 0.00 0.00 0.00 69 1004.7
20260505165554 80 207 3.0 9.0 0.00 0.00 0.00 71 1004.7
20260505165057 80 165 2.0 10.0 0.00 0.00 0.00 72 1004.8
20260505164554 79 180 2.0 15.0 0.00 0.00 0.00 72 1004.8
20260505164054 79 260 4.0 15.0 0.00 0.00 0.00 71 1004.5
20260505163554 79 213 4.0 15.0 0.00 0.00 0.00 71 1004.8
20260505163053 79 232 4.0 15.0 0.00 0.00 0.00 71 1004.7
20260505162554 79 226 4.0 10.0 0.00 0.00 0.00 72 1004.7
20260505162057 79 269 2.0 13.0 0.00 0.00 0.00 72 1004.7
20260505161613 78 180 3.0 13.0 0.00 0.00 0.00 72 1004.5
20260505161054 78 190 3.0 15.0 0.00 0.00 0.00 72 1004.6
20260505160555 78 150 5.0 15.0 0.00 0.00 0.00 71 1004.6
20260505153102 79 287 4.0 17.0 0.00 0.00 0.00 72 1004.2
20260505152556 79 232 5.0 12.0 0.00 0.00 0.00 71 1004.3
20260505152054 79 251 4.0 12.0 0.00 0.00 0.00 73 1004.4
20260505151604 78 234 5.0 14.0 0.00 0.00 0.00 74 1004.3
20260505151057 77 188 5.0 14.0 0.00 0.00 0.00 75 1004.2
20260505150554 76 186 5.0 14.0 0.00 0.00 0.00 75 1004.4
20260505140555 73 215 6.0 17.0 0.00 0.00 0.00 81 1004.0
20260505140105 73 352 6.0 17.0 0.00 0.00 0.00 82 1004.2
20260505124556 70 144 2.0 12.0 0.00 0.00 0.00 86 1003.9
20260505124055 69 196 3.0 12.0 0.00 0.00 0.00 86 1003.9
20260505123554 69 201 3.0 11.0 0.00 0.00 0.00 86 1003.8
20260505123054 69 224 5.0 11.0 0.00 0.00 0.00 86 1003.7
20260505122556 69 225 4.0 11.0 0.00 0.00 0.00 87 1003.5
20260505122054 69 189 5.0 11.0 0.00 0.00 0.00 86 1003.4
20260505121625 69 174 4.0 12.0 0.00 0.00 0.00 87 1003.3
20260505121055 69 169 4.0 12.0 0.00 0.00 0.00 86 1003.4
20260505120556 69 192 4.0 12.0 0.00 0.00 0.00 86 1003.3
20260505120057 69 164 4.0 14.0 0.00 0.00 0.00 86 1003.4
20260505115557 69 216 5.0 14.0 0.00 0.00 0.00 86 1003.5
20260505115058 69 219 3.0 10.0 0.00 0.00 0.00 86 1003.4
20260505114600 69 199 4.0 11.0 0.00 0.00 0.00 86 1003.3
20260505114055 69 256 4.0 11.0 0.00 0.00 0.00 86 1003.3
20260505113554 69 167 3.0 12.0 0.00 0.00 0.00 86 1003.3
20260505113101 69 224 4.0 12.0 0.00 0.00 0.00 86 1003.2
20260505112555 69 194 3.0 8.0 0.00 0.00 0.00 86 1003.3
20260505112055 69 164 2.0 8.0 0.00 0.00 0.00 86 1003.2
20260505111557 69 191 4.0 9.0 0.00 0.00 0.00 86 1003.2
20260505111055 69 175 3.0 9.0 0.00 0.00 0.00 85 1003.1
20260505110557 69 192 3.0 10.0 0.00 0.00 0.00 85 1003.2